METEOR 2-7 DEB, 45515

Orbit data source: Space-Track

METEOR 2-7 DEB, 45515 is space debris in LEO originally from a launch on Thu, 12 Feb 1981 UTC launched from the Plesetsk Missile And Space Complex (PKMTR). Debris objects in space refer to the collection of defunct objects orbiting the Earth. Examples of debris include non-operational satellites, rocket bodies, and fragments generated from explosions, collisions, or faulty payload assembly.

Loading next visibility...
Identifier
45515, 1981-043AA
Orbit
LEO
Last TLE update
5 days ago
Origin
Manufacturer
Unknown
Mission
Spacecraft
Bus & Motor
Unknown
Mass
Unknown
Launch date (UTC)
1981-02-12 (44 years ago)
Launch vehicle
Unknown
Launch site
Plesetsk Missile And Space Complex (PKMTR)
Object type
Payload
Rocket body
Debris
Shape & HBR
Unknown
Radar Cross Section
Small (<0.1 m²)

Expand to show TLE details & history

TLE from 5 days ago
0 METEOR 2-7 DEB
1 45515U 81043AA  25185.80531544  .00002906  00000-0  91925-3 0  9993
2 45515  81.2559   5.0202 0007112 226.2369 194.6562 14.39960994602311
Epoch: 2025-07-04T19:19Z
TLE epoch observation values (Epoch: 2025-07-04T19:19:39.254Z)
Latitude
59.7966°
Longitude
167.29209°
Altitude
773.672 km
Speed
7.47 km/s
True Right ascension
01h 21m 01s
True Declination
59° 38' 50"
Sunlit
Object was in daylight at epoch
Visualization orbit readout
Latitude
-4.08594°
Longitude
-32.23711°
Altitude
757.612 km
Speed
7.478 km/s
Apparent Right ascension
13h 17m 40s
Apparent Declination
-22° 26' 46"
Sunlit
Object is in daylight
Visualization observer readout
Local Sidereal Time
03:08:41
Azimuth
61.674° ENE
Elevation
-60.731°
Doppler factor
1
Orbital elements
Apogee altitude
760.835 km
Perigee altitude
750.687 km
Semi-major axis
7,133.898 km
Eccentricity
0.00071
Inclination
81.2559°
RAAN
5.0202°
Arg. of periapsis
226.2369°
True anomaly
Unknown
Mean anomaly
194.6562°
Eccentric anomaly
Unknown
Mean motion
3.60208 °/min
Orbital period
99.94 mins
BSTAR
0.00091925
Loading maneuver chart data...
Loading SW <> Apogee altitude chart data...
Loading historical data...
Loading historical data...
Loading historical data...
Loading historical data...
Loading historical data...
Loading historical data...
Loading historical data...

METEOR 2-7 DEB Visibility forecast

Observer location: undefined°, undefined°

Span
Click to sort rows by Start time (UTC) header in descending order
Start Az.
Max El. time (UTC)
Max El. Az.
Max El.
End time (UTC)
End Az.
9 mins2025-07-09 23:00:57.483Z355.856° N2025-07-09 23:05:57.483Z94.347° ESE43.126°2025-07-09 23:09:57.483Z162.123° S
8 mins2025-07-10 11:54:57.483Z175.19° S2025-07-10 11:58:57.483Z78.293° E42.478°2025-07-10 12:02:57.483Z16.29° NNE
|